Theta_e
318 318 319 319 320 320 320 320 319 319 319 318 318 319 318 317 315 309 302 310 315 322 321 313 308 308 310 306 307 307 303 299 297 298 297 299 301 307 310 309 310 312 314 315 317
317 318 318 319 319 320 321 320 320 320 320 320 319 319 317 315 309 306 314 318 318 320 309 305 304 307 304 303 304 305 302 297 297 298 297 297 299 300 302 305 306 309 314 314 312
316 317 317 318 319 320 321 321 321 321 321 320 317 318 315 311 304 304 319 316 317 316 307 306 306 305 301 302 300 300 297 296 296 298 297 296 297 298 300 299 303 305 309 311 311
315 316 317 318 318 319 320 322 321 320 320 317 314 313 312 307 294 307 317 318 317 310 306 304 304 302 299 297 298 295 296 297 296 296 296 295 297 297 299 302 307 309 310 309 308
314 315 316 317 318 319 320 321 320 319 318 315 315 313 308 303 300 308 315 314 309 307 305 304 302 301 297 297 298 295 295 296 296 296 295 296 295 296 297 303 308 309 307 307 306
315 314 315 317 317 318 319 319 319 318 317 316 314 311 308 297 306 308 308 309 307 307 305 305 302 302 298 296 297 297 297 295 296 295 295 293 294 293 297 304 306 305 306 305 304
314 314 315 316 317 316 318 318 317 316 315 314 312 308 303 298 306 307 309 308 308 307 304 305 304 303 302 296 299 298 294 296 295 295 294 295 293 292 298 301 303 304 304 303 301
314 314 314 315 316 315 315 317 315 314 313 316 312 310 299 305 308 305 308 309 310 307 306 306 309 303 301 301 299 296 297 293 295 295 295 294 293 299 298 297 300 303 302 301 299
313 313 313 314 314 314 314 314 314 314 312 313 309 307 298 307 301 304 305 303 307 307 306 306 306 302 302 299 297 297 295 293 294 294 293 293 293 297 297 298 298 302 302 301 299
313 313 313 314 313 313 312 314 311 313 308 305 304 304 300 296 301 301 304 304 304 306 304 304 303 300 297 297 292 290 290 290 289 291 290 290 290 295 297 296 298 300 302 301 298
312 313 312 314 313 312 311 311 305 301 300 295 295 295 296 299 302 300 301 301 304 301 296 297 294 289 289 290 290 291 289 288 292 289 287 290 291 293 296 296 293 296 299 299 298
312 313 311 312 311 312 312 302 300 302 294 297 297 297 297 298 296 298 303 298 298 294 297 296 288 289 290 290 289 289 288 290 290 288 288 289 288 293 291 293 296 294 297 298 298
312 312 310 311 309 311 306 302 306 304 298 294 295 295 295 297 292 293 298 297 294 293 292 291 287 289 287 289 288 288 286 286 284 287 289 287 292 293 290 290 291 293 296 298 298
311 311 309 311 309 306 302 304 307 303 292 292 294 295 297 296 293 296 296 295 294 288 290 288 288 287 288 287 287 285 287 285 284 284 286 287 287 293 291 290 289 291 293 295 297
310 309 307 310 306 302 301 305 307 305 288 293 293 299 298 293 292 294 296 298 290 288 293 286 287 287 287 284 286 287 287 285 285 283 283 286 284 293 290 290 290 291 292 293 294
310 308 308 307 307 302 305 306 305 292 290 288 293 291 293 294 292 294 295 296 294 291 291 288 289 288 286 286 286 288 285 285 285 286 286 279 282 288 293 291 291 291 291 291 293
308 305 305 304 302 305 307 306 290 288 291 291 288 290 289 288 291 290 289 288 288 289 288 288 287 287 286 286 288 288 288 287 287 286 287 277 280 287 292 293 291 290 290 290 291
306 304 302 302 305 307 306 299 289 285 288 288 288 289 287 287 289 290 289 289 289 287 287 288 292 287 286 284 283 284 284 286 279 282 283 275 281 289 290 289 289 289 289 289 289
304 310 307 303 304 306 304 287 286 287 288 288 289 289 290 288 286 290 287 287 286 286 285 286 287 285 284 285 284 284 287 283 284 272 277 285 288 292 289 288 288 288 288 289 289
308 309 304 302 303 305 288 285 286 288 289 289 286 286 286 287 287 288 286 286 286 286 286 284 284 284 283 285 284 284 284 286 286 280 280 285 285 286 291 289 287 288 288 288 288
309 309 305 301 304 296 286 285 286 289 290 288 286 286 285 287 285 285 285 286 287 286 286 284 285 286 282 283 287 283 284 282 282 281 280 279 285 290 289 286 287 287 286 284 283
309 296 305 302 291 285 285 285 288 289 291 289 288 287 286 284 284 286 284 286 288 287 284 286 282 282 290 283 284 284 284 284 282 283 280 277 280 288 285 285 285 286 286 284 281
306 304 309 306 288 285 286 286 289 288 288 287 286 287 286 286 287 285 286 288 288 286 285 286 284 284 289 283 282 280 283 282 281 280 279 279 285 285 284 284 285 283 284 280 278
306 292 298 298 296 294 287 287 288 290 289 288 287 287 285 284 283 286 286 286 287 287 287 285 283 284 285 288 284 282 281 282 282 281 282 281 284 287 288 287 286 284 279 277 276
301 293 291 286 295 292 291 288 287 287 288 289 287 286 287 284 284 283 286 286 286 287 286 285 281 280 281 282 282 280 280 281 278 280 279 283 282 285 286 285 282 277 278 277 275
306 303 294 291 290 291 290 288 288 288 288 286 286 287 287 285 287 285 285 285 285 286 285 284 281 276 277 281 279 277 279 281 279 280 279 280 278 285 284 280 281 280 277 276 274
298 297 300 291 292 293 296 290 289 290 290 290 289 287 285 287 288 287 287 286 285 285 284 282 281 278 279 276 275 278 281 281 281 281 280 277 285 282 284 284 281 278 275 274 273
Wind_Speed
15 14 13 12 11 10 9 9 8 7 6 7 7 6 6 9 9 5 13 10 11 17 12 7 3 1 2 5 6 3 3 5 4 3 6 4 2 4 2 4 3 3 4 4 7
15 14 14 13 13 11 11 10 9 8 7 6 6 5 4 7 4 16 6 17 14 12 4 3 3 3 4 4 4 4 2 3 6 6 5 4 2 2 4 5 4 6 7 6 4
15 16 15 14 12 11 11 11 9 8 7 5 4 3 4 6 1 9 20 22 15 9 2 2 2 3 6 6 8 6 4 5 6 6 3 2 2 2 6 6 2 3 6 3 4
16 15 15 14 11 11 9 9 8 7 5 2 5 3 3 6 4 12 20 18 12 3 3 0 1 4 5 6 4 6 7 6 3 3 0 2 1 3 6 4 3 1 4 5 5
17 17 15 15 13 11 9 9 9 8 7 5 1 2 5 11 8 14 17 13 5 2 5 4 6 4 7 6 7 9 4 5 3 3 2 3 5 8 8 5 5 3 5 6 4
17 17 16 14 15 12 10 10 10 8 8 7 5 8 6 21 8 14 15 12 14 4 10 6 8 13 11 6 7 5 8 5 4 3 3 5 5 3 7 8 10 8 8 4 4
17 16 16 15 14 14 12 9 7 8 9 9 8 6 19 10 5 14 11 10 12 8 9 7 3 1 5 7 4 6 4 2 3 4 2 4 9 15 7 8 10 10 8 6 3
17 16 15 14 13 12 11 10 6 8 7 1 3 3 8 3 7 17 16 7 11 7 7 6 7 10 6 9 4 1 2 3 4 3 2 4 11 5 8 10 13 11 10 9 8
18 17 16 14 14 10 5 5 3 5 7 4 1 4 6 1 9 13 10 7 6 5 6 2 4 6 3 3 3 1 3 4 3 4 5 5 14 8 6 10 14 13 12 11 11
19 18 16 14 16 11 3 2 9 1 7 2 8 3 8 9 9 12 9 8 4 5 2 7 5 7 10 6 4 7 5 4 6 4 6 15 24 22 14 12 14 14 13 13 13
18 18 18 12 16 12 3 3 3 7 15 8 4 5 5 13 5 12 9 9 3 8 6 8 11 10 8 7 4 5 7 10 7 4 9 11 22 21 16 17 14 15 14 14 13
19 18 17 15 8 8 4 6 4 3 10 6 5 4 3 6 5 22 16 5 8 7 4 6 8 6 4 4 5 5 7 7 8 1 9 14 26 19 3 10 12 14 14 13 12
21 19 18 15 5 7 10 6 3 3 2 6 5 5 6 8 8 14 13 4 8 8 14 8 3 3 3 5 8 1 3 6 8 13 3 14 11 5 4 3 4 9 11 12 14
20 18 17 16 1 1 5 3 2 2 7 15 9 7 3 4 4 4 7 4 5 3 5 7 1 2 3 3 6 4 4 7 10 8 5 5 7 8 3 3 5 8 11 11 12
19 17 10 16 3 4 4 3 2 4 6 11 7 4 5 7 7 11 3 2 7 5 3 2 4 5 3 2 2 4 7 7 5 4 6 2 3 6 2 3 3 4 8 10 10
16 18 12 3 5 3 4 3 4 9 3 5 5 10 4 8 5 7 5 7 2 1 9 3 0 2 4 4 4 9 5 4 2 2 3 3 5 9 2 1 1 1 1 4 4
12 11 9 3 3 4 4 3 8 7 2 6 5 7 4 8 7 10 6 10 6 4 5 1 1 2 2 5 4 6 3 4 3 2 4 2 6 13 7 4 3 4 4 4 3
6 4 5 4 4 4 3 6 10 1 3 1 3 4 5 10 4 7 2 4 8 5 1 4 3 1 3 3 3 4 2 2 6 6 9 4 8 5 2 1 2 4 3 3 4
4 0 3 7 5 3 2 9 3 1 3 5 2 4 4 2 3 5 6 4 5 8 3 4 3 3 3 2 2 3 2 4 3 2 2 4 6 13 4 3 2 0 2 3 4
1 1 3 7 4 1 9 4 1 2 3 2 2 1 1 5 4 4 5 3 3 5 3 5 8 3 2 2 3 2 3 1 1 7 9 5 5 9 2 3 3 3 2 3 8
2 1 3 2 3 8 7 2 1 2 2 3 2 1 2 3 4 2 1 2 1 2 1 2 2 2 1 4 4 3 2 1 2 2 5 9 5 4 5 2 3 3 2 4 6
2 5 3 1 8 4 3 1 3 2 2 1 2 1 1 1 2 1 2 1 1 0 2 3 2 6 6 3 1 2 3 4 3 2 4 4 13 3 3 3 2 4 2 6 6
3 3 2 4 5 2 1 1 2 2 2 3 3 2 2 3 1 2 2 3 2 2 2 2 2 6 4 2 3 4 5 4 1 3 9 6 10 1 3 2 3 4 5 6 5
2 4 6 7 3 5 4 1 1 1 1 1 2 1 2 1 1 3 2 3 2 1 2 1 3 6 8 8 2 9 7 8 6 5 7 17 26 22 14 4 7 3 4 4 4
5 2 2 3 4 4 1 3 2 2 1 1 2 4 1 3 1 3 2 4 3 4 2 2 5 5 13 16 11 19 17 11 15 18 11 24 17 27 20 17 6 1 1 3 3
1 2 1 2 0 0 1 4 6 3 5 2 3 1 5 4 3 2 0 3 2 4 4 3 3 3 10 9 9 13 15 13 17 21 21 28 34 22 7 2 2 1 2 2 1
1 1 2 1 0 0 2 3 5 5 6 4 6 4 5 6 3 2 2 1 1 2 5 2 2 1 6 4 11 11 12 12 7 8 7 10 12 2 2 2 3 1 3 3 2
Wind_Direction
351 352 349 347 349 349 345 343 344 341 334 316 306 311 332 315 279 94 49 336 312 315 309 276 263 39 81 67 31 300 160 149 122 156 102 119 191 62 2 110 59 25 51 76 114
352 351 350 348 350 347 345 341 338 337 326 310 295 292 310 307 65 57 9 348 337 326 269 293 101 52 68 51 26 9 150 84 36 45 80 75 305 77 225 169 134 130 122 134 134
359 350 352 350 345 338 345 338 335 339 330 314 301 283 295 279 331 15 358 346 337 309 306 6 71 60 66 35 10 17 52 113 64 37 29 59 175 221 243 229 214 212 168 180 213
358 357 355 353 348 345 349 337 347 357 6 72 100 78 257 236 66 347 346 332 322 301 274 86 359 59 60 52 11 100 49 39 34 16 310 223 337 250 272 24 69 248 179 201 220
359 355 357 350 358 353 356 0 11 22 37 46 67 272 247 74 31 333 335 341 17 345 30 66 65 74 84 89 67 73 97 63 83 80 21 325 265 291 242 201 197 178 206 213 211
356 356 352 352 353 356 356 4 11 20 35 30 6 282 92 74 336 345 347 20 19 44 56 58 86 100 80 58 42 115 104 96 71 54 28 302 261 290 199 188 201 200 212 213 226
355 354 352 350 352 352 345 358 8 13 14 16 8 37 60 52 346 1 7 31 33 30 78 42 22 200 118 105 83 124 97 143 67 7 340 312 250 235 222 202 218 210 215 213 207
352 351 349 346 345 347 338 326 341 19 24 12 327 16 69 1 351 10 3 37 31 49 73 34 58 79 46 121 128 151 240 270 118 336 130 301 286 217 171 210 230 214 210 213 212
351 348 348 345 347 346 328 324 84 19 13 323 345 3 50 19 11 354 14 351 326 62 69 79 70 70 125 158 147 157 305 305 134 45 317 247 292 89 193 225 238 224 216 217 218
351 348 351 347 354 356 3 336 341 74 342 207 49 126 37 343 334 325 355 345 351 311 153 29 53 83 36 341 27 4 339 332 311 31 301 274 267 275 238 232 246 249 226 219 225
354 352 351 352 4 358 306 269 216 37 38 40 4 66 360 327 290 13 343 322 350 49 37 32 65 51 23 19 348 335 326 315 303 43 319 282 288 288 279 256 236 250 239 229 231
353 354 352 346 354 352 32 63 41 49 79 46 53 67 9 331 349 10 352 39 43 57 347 70 57 18 337 345 342 331 310 327 295 138 326 307 294 289 333 275 257 241 244 235 233
350 350 347 344 289 39 69 66 347 317 35 42 36 19 349 340 36 354 2 15 50 48 44 67 50 323 318 18 350 14 327 342 306 320 257 299 277 194 172 268 268 254 251 238 230
349 348 345 341 126 51 57 21 331 301 78 357 4 40 321 337 62 353 11 358 57 107 51 67 51 311 327 68 349 306 30 324 303 326 300 1 290 294 153 275 218 234 235 243 240
347 347 352 18 72 46 30 318 273 250 65 349 349 317 344 56 313 37 331 32 51 33 291 44 2 1 13 326 316 325 331 310 315 269 315 141 276 285 192 171 193 219 232 240 239
347 353 336 35 69 23 315 282 240 40 44 340 327 356 12 26 32 315 24 61 58 54 53 90 173 340 328 296 251 315 303 268 257 242 269 72 354 284 249 66 136 147 312 328 268
348 22 30 344 40 339 302 242 43 88 333 328 342 359 354 4 8 12 24 34 26 36 15 240 166 100 332 294 195 301 311 329 325 289 279 124 272 258 292 296 292 332 1 6 323
355 324 40 44 344 323 255 53 66 105 269 18 322 304 47 360 40 359 21 59 56 355 23 357 295 44 359 18 328 342 334 351 308 306 314 156 234 258 76 21 283 269 296 330 309
319 90 56 9 352 304 67 54 172 357 335 345 283 35 5 52 356 354 36 41 21 12 359 334 260 121 37 349 338 10 347 14 288 90 275 242 265 266 47 317 279 311 339 360 8
302 199 50 343 333 275 72 122 162 343 319 282 23 311 287 342 350 29 9 56 36 33 11 28 299 54 54 311 67 310 10 309 128 317 305 235 266 258 290 264 18 25 347 13 6
274 348 62 8 264 49 81 129 198 191 305 351 42 347 12 356 342 353 18 130 78 84 56 122 136 311 188 196 171 169 204 187 291 258 276 304 270 179 202 154 143 268 270 32 13
319 40 57 235 49 52 75 227 267 152 192 200 312 70 195 171 228 269 303 243 139 210 348 72 319 269 245 123 348 266 258 223 246 198 251 296 272 41 129 128 147 299 330 0 24
41 331 94 294 88 64 152 232 241 181 195 196 182 203 155 190 293 231 230 101 159 221 351 131 250 303 267 192 167 221 198 191 115 256 228 261 260 246 102 156 231 280 349 18 41
345 16 348 40 10 105 142 174 201 273 274 296 350 283 205 211 279 319 325 71 81 357 30 293 274 232 256 272 27 260 202 207 207 254 268 235 275 278 289 358 347 28 47 55 61
9 54 169 334 21 61 76 141 89 320 299 286 319 237 170 338 278 231 208 186 166 165 186 218 261 287 264 273 278 267 265 220 211 235 246 276 279 282 301 318 345 352 59 86 90
46 148 160 123 179 191 305 209 175 197 164 184 202 175 182 210 230 298 190 227 254 179 200 160 268 343 296 310 293 280 275 243 237 256 258 264 276 279 301 148 230 1 36 71 36
114 114 288 109 171 214 207 191 221 165 204 217 204 180 225 248 305 2 293 279 338 209 193 192 242 273 264 337 326 280 248 195 203 209 204 231 258 117 266 319 342 71 178 168 287